STARLINK-34320, 64217

Orbit data source: Space-Track

STARLINK-34320, 64217 is a payload satellite owned by SpaceX/Seattle (US) in LEO that was launched on Sat, 31 May 2025 UTC via an FALCON 9 launch vehicle from the Air Force Western Test Range (AFWTR). Payload-class satellites include a variety of spacecraft equipped with specific instruments for various scientific and technological missions. These include communications satellites like Starlink; space stations such as the ISS; scientific satellites like the Hubble; Earth observation satellites from companies like Planet Labs, Umbra, and HawkEye 360; GPS; miniature CubeSats for education and research; and military/defense satellites.

Loading next visibility...
Identifier
64217, 2025-117Q
Orbit
LEO
Country
Flag of USUS
Related business
Manufacturer
SpaceX/Seattle
Mission
Operational Commercial Communications
Bus & Motor
STARLINK V2MO, Unknown motor
Mass
575 kg wet, ~530 kg dry
Launch date (UTC)
2025-05-31 (1 year ago)
Launch vehicle
FALCON 9
Launch site
Air Force Western Test Range (AFWTR)
Object type
Payload
Rocket body
Debris
Shape & HBR
Box + 1 Pan, 17.7 m
Radar Cross Section
41.120 m², Large (>1 m²)

Expand to show TLE details & history
Last TLE update: 18 hours ago

TLE from 18 hours ago
0 STARLINK-34320
1 64217U 25117Q   26235.59531002  .00019741  00000-0  59368-3 0  9995
2 64217  53.1596 341.9408 0002300  82.8714 277.2551 15.34409219 70111
Epoch: 2026-08-23T14:17Z
TLE epoch observation values (Epoch: 2026-08-23T14:17:14.785Z)
Latitude
0.00004°
Longitude
155.74012°
Altitude
463.379 km
Speed
7.636 km/s
True Right ascension
22h 47m 45s
True Declination
0° 00' 00"
Sunlit
Object was in full shadow at epoch
Visualization orbit readout
Latitude
Unknown
Longitude
Unknown
Altitude
Unknown
Speed
Unknown
Apparent Right ascension
Unknown
Apparent Declination
Unknown
Sunlit
N/A
Visualization observer readout
Local Sidereal Time
23:11:57
Azimuth
Unknown
Elevation
Unknown
Doppler factor
Unknown
Orbital elements
Apogee altitude
464.506 km
Perigee altitude
461.359 km
Semi-major axis
6,841.07 km
Eccentricity
0.00023
Inclination
53.1596°
RAAN
341.9408°
Arg. of periapsis
82.8714°
True anomaly
277.22895°
Mean anomaly
277.2551°
Eccentric anomaly
277.24203°
Mean motion
3.83581 °/min
Orbital period
93.85 mins
BSTAR
0.00059368
Loading maneuver chart data...
Computing Atmospheric mass density...
Loading historical data...
Loading historical data...
Loading historical data...
Loading historical data...
Loading historical data...
Loading historical data...
Loading historical data...

Documentation

Showing up to 5 results
|